7 * 24
多渠道服务支持
STARLINK-31453是美国太空探索技术公司SpaceX星链互联网卫星星座中的一员,于2024年4月17日发射升空。星链项目旨在构建全球卫星互联网覆盖网络,该卫星入轨后,将和其他星链卫星协同工作,为全球多地用户提供低延迟、高速率的宽带互联网服务。
美国
(US)
| 数据来源 | 国际轨道数据 |
| 星历时间: | 2026-09-03T23:29:09+0800 16小时前 查看轨道信息 |
| 半长轴: | 6861.192km |
| 偏心率: | 0.0001965 |
| 轨道倾角: | 43.001° |
| 近地点辐角 | 271.966° |
| 升交点赤经 | 15.244° |
| 平近点角 | 88.097° |
| 近地点: | 481.706km |
| 远地点: | 484.404km |
| 周期: | 94.267分钟 |
| 每日圈数: | 15.275781 |
| 事件ID | 空间交会对象 | 最接近时刻(TCA) | 交会距离 | 交会风险概率(CRP) | 交会风险指数(CRI) | 操作 |
|---|---|---|---|---|---|---|
| CDM_260903-080505-321405-952221 |
STARLINK-4353
(53214)
STARLINK-31453
(59522) | 2026-09-03T 08:05:45+0000 |
0.838 km
远距离 | 3.837306E-5 中风险 | 0.67 | |
| CDM_260903-143605-919005-952222 |
STARLINK-31563
(59190)
STARLINK-31453
(59522) | 2026-09-03T 14:36:54+0000 |
1.187 km
极远距离 | 1.141156E-5 中风险 | 0.56 | |
| CDM_260904-035705-919005-952222 |
STARLINK-31563
(59190)
STARLINK-31453
(59522) | 2026-09-04T 03:57:11+0000 |
1.297 km
极远距离 | 8.418231E-6 低风险 | 0.54 | |
| CDM_260904-142605-777405-952221 |
STARLINK-30384
(57774)
STARLINK-31453
(59522) | 2026-09-04T 14:26:27+0000 |
1.460 km
极远距离 | 4.875463E-6 低风险 | 0.49 | |
| CDM_260903-075105-952206-408521 |
STARLINK-31453
(59522)
STARLINK-34140
(64085) | 2026-09-03T 07:51:08+0000 |
1.486 km
极远距离 | 4.516863E-6 低风险 | 0.48 | |
| CDM_260905-084905-952206-368121 |
STARLINK-31453
(59522)
STARLINK-33886
(63681) | 2026-09-05T 08:49:41+0000 |
1.482 km
极远距离 | 4.357414E-6 低风险 | 0.48 | |
| CDM_260903-092505-952206-408521 |
STARLINK-31453
(59522)
STARLINK-34140
(64085) | 2026-09-03T 09:25:17+0000 |
1.595 km
极远距离 | 3.61664E-6 低风险 | 0.46 | |
| CDM_260904-213005-777405-952221 |
STARLINK-30384
(57774)
STARLINK-31453
(59522) | 2026-09-04T 21:30:07+0000 |
1.648 km
极远距离 | 3.3389E-6 低风险 | 0.45 | |
| CDM_260903-161105-919005-952222 |
STARLINK-31563
(59190)
STARLINK-31453
(59522) | 2026-09-03T 16:11:03+0000 |
1.796 km
极远距离 | 2.993538E-6 低风险 | 0.45 | |
| CDM_260904-123005-847305-952221 |
STARLINK-30947
(58473)
STARLINK-31453
(59522) | 2026-09-04T 12:30:53+0000 |
1.905 km
极远距离 | 2.421579E-6 低风险 | 0.43 |